7L2IWN-13 Weather Reports


time (UTC)temp
C
wind
direction
speed
KPH
gust
KPH
rain 1hr
cm
rain 24hr
cm
rain mn
cm
humidity
%
barometer
mb
20260509173604 7 241 4.8 8.0 0.00 0.00 0.00 80 1017.4
20260509172403 8 248 1.6 3.2 0.00 0.00 0.00 81 1017.4
20260509171203 8 305 1.6 3.2 0.00 0.00 0.00 79 1017.5
20260509170003 8 231 3.2 4.8 0.00 0.00 0.00 74 1017.2
20260509164804 8 228 4.8 4.8 0.00 0.00 0.00 77 1017.1
20260509163603 8 227 3.2 4.8 0.00 0.00 0.00 77 1017.1
20260509162403 8 276 4.8 8.0 0.00 0.00 0.00 78 1017.1
20260509161203 8 302 4.8 4.8 0.00 0.00 0.00 76 1017.2
20260509160004 8 238 4.8 8.0 0.00 0.00 0.00 73 1017.1
20260509154804 8 278 3.2 3.2 0.00 0.00 0.00 77 1017.1
20260509153603 9 249 3.2 4.8 0.00 0.00 0.00 74 1017.1
20260509152403 9 309 0.0 0.0 0.00 0.00 0.00 76 1017.0
20260509151202 9 257 1.6 4.8 0.00 0.00 0.00 73 1017.1
20260509150004 10 260 3.2 4.8 0.00 0.00 0.00 71 1017.0
20260509144804 10 254 4.8 4.8 0.00 0.00 0.00 70 1017.0
20260509143603 10 241 3.2 4.8 0.00 0.00 0.00 70 1017.0
20260509142403 10 232 1.6 3.2 0.00 0.00 0.00 71 1016.7
20260509141204 10 234 3.2 4.8 0.00 0.00 0.00 70 1016.7
20260509140003 10 257 3.2 3.2 0.00 0.00 0.00 69 1016.6
20260509134802 10 201 0.0 0.0 0.00 0.00 0.00 70 1016.4
20260509133604 11 292 1.6 3.2 0.00 0.00 0.00 68 1016.5
20260509132404 11 223 1.6 3.2 0.00 0.00 0.00 68 1016.2
20260509131818 11 287 4.8 4.8 0.00 0.00 0.00 67 1016.3
20260509131605 11 298 4.8 8.0 0.00 0.00 0.00 66 1016.2
20260509130405 11 232 0.0 0.0 0.00 0.00 0.00 65 1016.1
20260509125206 12 246 1.6 1.6 0.00 0.00 0.00 64 1015.9
20260509124006 12 281 3.2 3.2 0.00 0.00 0.00 64 1016.0
20260509122807 12 282 1.6 3.2 0.00 0.00 0.00 61 1015.7
20260509121604 13 236 3.2 4.8 0.00 0.00 0.00 60 1015.7
20260509120406 13 203 1.6 3.2 0.00 0.00 0.00 60 1015.7
20260509115207 13 302 1.6 3.2 0.00 0.00 0.00 59 1015.7
20260509114004 13 249 3.2 4.8 0.00 0.00 0.00 57 1015.3
20260509112806 14 283 4.8 8.0 0.00 0.00 0.00 55 1015.3
20260509111606 14 303 3.2 3.2 0.00 0.00 0.00 55 1015.1
20260509110404 14 241 3.2 3.2 0.00 0.00 0.00 55 1014.6
20260509105205 15 209 3.2 8.0 0.00 0.00 0.00 55 1014.6
20260509104005 15 61 0.0 0.0 0.00 0.00 0.00 52 1014.3
20260509102806 15 333 3.2 4.8 0.00 0.00 0.00 49 1014.1
20260509101604 15 333 0.0 3.2 0.00 0.00 0.00 49 1013.8
20260509100407 16 90 1.6 3.2 0.00 0.00 0.00 45 1013.3
20260509095205 16 23 0.0 3.2 0.00 0.00 0.00 43 1013.3
20260509094008 16 27 1.6 3.2 0.00 0.00 0.00 46 1013.2
20260509091606 18 82 8.0 9.7 0.00 0.00 0.00 33 1012.7
20260509090405 18 79 9.7 12.9 0.00 0.00 0.00 33 1012.4
20260509085205 18 44 9.7 12.9 0.00 0.00 0.00 33 1012.2
20260509084006 19 52 8.0 14.5 0.00 0.00 0.00 32 1012.1
20260509082804 19 63 4.8 9.7 0.00 0.00 0.00 32 1012.0
20260509081605 19 28 14.5 22.5 0.00 0.00 0.00 31 1011.7
20260509080405 20 35 14.5 25.7 0.00 0.00 0.00 32 1011.5
20260509075206 20 38 8.0 12.9 0.00 0.00 0.00 32 1011.4
20260509074005 20 63 9.7 16.1 0.00 0.00 0.00 31 1011.1
20260509072804 20 55 19.3 27.4 0.00 0.00 0.00 31 1010.9
20260509071604 21 15 12.9 19.3 0.00 0.00 0.00 30 1010.6
20260509070405 21 358 9.7 16.1 0.00 0.00 0.00 28 1010.7
20260509065207 21 11 14.5 22.5 0.00 0.00 0.00 26 1010.4
20260509064006 21 35 11.3 20.9 0.00 0.00 0.00 25 1010.3
20260509062806 21 3 20.9 32.2 0.00 0.00 0.00 26 1010.4
20260509060404 22 43 9.7 16.1 0.00 0.00 0.00 25 1010.2
20260509055205 21 314 8.0 16.1 0.00 0.00 0.00 26 1010.3
20260509054005 21 349 11.3 29.0 0.00 0.00 0.00 26 1010.4
20260509052804 21 329 19.3 27.4 0.00 0.00 0.00 27 1010.6
20260509051604 21 60 16.1 27.4 0.00 0.00 0.00 27 1010.6
20260509050407 21 358 4.8 14.5 0.00 0.00 0.00 29 1010.3
20260509045204 20 333 9.7 16.1 0.00 0.00 0.00 30 1010.5
20260509042805 20 308 19.3 33.8 0.00 0.00 0.00 29 1010.9
20260509041604 20 354 14.5 27.4 0.00 0.00 0.00 30 1010.8
20260509040406 20 333 20.9 40.2 0.00 0.00 0.00 30 1011.0
20260509035205 20 334 16.1 27.4 0.00 0.00 0.00 31 1011.1
20260509034005 20 330 27.4 41.8 0.00 0.00 0.00 31 1011.4
20260509032804 19 318 11.3 33.8 0.00 0.00 0.00 31 1011.4
20260509031604 19 270 14.5 27.4 0.00 0.00 0.00 34 1011.2
20260509030405 19 308 12.9 22.5 0.00 0.00 0.00 34 1011.0
20260509025204 20 290 14.5 22.5 0.00 0.00 0.00 34 1011.2
20260509022804 18 304 9.7 29.0 0.00 0.00 0.00 36 1011.5
20260509021605 18 338 9.7 32.2 0.00 0.00 0.00 37 1011.5
20260509020404 17 281 25.7 38.6 0.00 0.00 0.00 38 1011.7
20260509015204 18 292 32.2 38.6 0.00 0.00 0.00 38 1011.7
20260509014005 18 292 8.0 14.5 0.00 0.00 0.00 39 1011.6
20260509011605 18 352 4.8 14.5 0.00 0.00 0.00 40 1011.7
20260509010407 17 327 24.1 37.0 0.00 0.00 0.00 43 1011.6
20260509005205 17 314 35.4 51.5 0.00 0.00 0.00 42 1011.4
20260509004008 17 309 20.9 33.8 0.00 0.00 0.00 43 1011.3
20260509001607 17 283 32.2 49.9 0.00 0.00 0.00 41 1011.2
20260509000406 17 311 11.3 40.2 0.00 0.00 0.00 43 1010.7
20260508235206 17 317 29.0 57.9 0.00 0.00 0.00 42 1010.4
20260508234005 17 327 16.1 37.0 0.00 0.00 0.00 42 1010.2
20260508232806 18 235 9.7 14.5 0.00 0.00 0.00 41 1009.4
20260508231606 18 18 12.9 20.9 0.00 0.00 0.00 41 1009.1
20260508230406 18 346 12.9 27.4 0.00 0.00 0.00 40 1008.5
20260508225206 17 32 14.5 27.4 0.00 0.00 0.00 43 1008.3
20260508224007 17 71 9.7 12.9 0.00 0.00 0.00 49 1008.3
20260508222806 16 58 1.6 4.8 0.00 0.00 0.00 57 1008.3
20260508221606 15 109 0.0 0.0 0.00 0.00 0.00 63 1008.1
20260508220406 13 232 4.8 8.0 0.00 0.00 0.00 69 1007.7
20260508215207 13 227 3.2 4.8 0.00 0.00 0.00 67 1007.4
20260508214007 13 299 3.2 4.8 0.00 0.00 0.00 65 1007.1
20260508211607 13 42 1.6 3.2 0.00 0.00 0.00 70 1006.7
20260508210408 12 152 3.2 8.0 0.00 0.00 0.00 73 1006.3
20260508205206 11 56 0.0 3.2 0.00 0.00 0.00 79 1006.1
20260508204008 11 242 3.2 4.8 0.00 0.00 0.00 79 1005.8
20260508202805 12 269 4.8 11.3 0.00 0.00 0.00 69 1005.6
20260508201607 11 187 8.0 11.3 0.00 0.00 0.00 77 1005.8
20260508200406 11 353 9.7 12.9 0.00 0.00 0.00 82 1005.4
20260508195205 10 154 1.6 4.8 0.00 0.00 0.00 84 1005.3
20260508194007 10 262 1.6 3.2 0.00 0.00 0.00 87 1005.3
20260508192807 11 250 4.8 8.0 0.00 0.00 0.00 92 1005.3
20260508191607 11 232 1.6 1.6 0.00 0.00 0.00 92 1005.1
20260508190405 11 312 1.6 3.2 0.00 0.00 0.00 90 1005.1
20260508185205 11 54 0.0 1.6 0.00 0.00 0.00 93 1005.0
20260508184006 11 180 8.0 11.3 0.00 0.00 0.00 96 1004.9
20260508182806 11 298 3.2 8.0 0.00 0.00 0.00 96 1005.0
20260508181605 12 159 8.0 9.7 0.00 0.00 0.00 95 1004.9
20260508180406 11 116 8.0 9.7 0.00 0.00 0.00 98 1004.8
20260508175207 11 216 1.6 3.2 0.00 0.00 0.00 97 1004.4